Header for Extended Forecast Station List Page

Search by: ID | Name | Date | Parm | Value | Avg | % Avg
Sort by: ID | Name | Date | Parm | Value | Avg | % Avg

Enter search or view all records.

Click on id for station plot
#IDNameDateParmValueAvg% Avg
0LYDM8KOOTENAI-LIBBY DAM05-21-2018INFLOW (KAF)52115208100
1LEOI1KOOTENAI-AT LEONIA05-21-2018DISCHARGE (KAF)4461462496
2BFEI1KOOTENAI-AT BONNERS FERRY05-21-2018STAGE (FT)MMM
3FCFM8NF FLATHEAD-NEAR COLUMBIA FALLS05-21-2018DISCHARGE (KAF)1215123998
4WGCM8MF FLATHEAD-NEAR WEST GLACIER05-21-2018DISCHARGE (KAF)11901191100
5HHWM8SF FLATHEAD-HUNGRY HORSE DAM05-21-2018INFLOW (KAF)17251344128
6CFMM8FLATHEAD-AT COLUMBIA FALLS05-21-2018DISCHARGE (KAF)36083197113
7DLGM8CLARK FORK-AT DEER LODGE05-21-2018DISCHARGE (KAF)13059222
8DRMM8CLARK FORK-NR DRUMMOND05-21-2018DISCHARGE (KAF)380MM
9RCCM8ROCK CREEK-NEAR CLINTON05-21-2018DISCHARGE (KAF)374213176
10BONM8BLACKFOOT-NEAR BONNER05-21-2018DISCHARGE (KAF)945600158
11ABOM8CLARK FORK-ABOVE MISSOULA05-21-2018DISCHARGE (KAF)17851081165
12BITM8BITTERROOT-NEAR MISSOULA05-21-2018DISCHARGE (KAF)1152944122
13BELM8CLARK FORK-BELOW MISSOULA05-21-2018DISCHARGE (KAF)29482065143
14STRM8ST. REGIS-NEAR ST. REGIS05-21-2018DISCHARGE (KAF)140130107
15SRGM8CLARK FORK-AT ST REGIS05-21-2018DISCHARGE (KAF)35912697133
16KERM8FLATHEAD-KERR DAM05-21-2018INFLOW (KAF)44153966111
17NOXM8CLARK FORK-NOXON RAPIDS DAM05-21-2018INFLOW (KAF)85666847125
18CABI1CLARK FORK-CABINET GORGE DAM05-21-2018INFLOW (KAF)93937303129
19PRTI1PRIEST-NEAR PRIEST RIVER05-21-2018DISCHARGE (KAF)521479109
20ALFW1PEND OREILLE-ALBENI FALLS DAM05-21-2018INFLOW (KAF)100858175123
21HOPI1PEND OREILLE-PEND OREILLE LAKE NR HOPE05-21-2018LAKE ELEVATION (FT)MMM
22COEI1COEUR D ALENE-COEUR D ALENE LAKE05-21-2018INFLOW (KAF)1011102099
23SPOW1SPOKANE-AT SPOKANE05-21-2018DISCHARGE (KAF)1191MM
24LLKW1SPOKANE-AT LONGLAKE05-21-2018INFLOW (KAF)1403150193
25SATI1ST MARIES-NEAR SANTA05-21-2018DISCHARGE (KAF)474996
26SJMI1ST JOE-AT ST MARIES05-21-2018STAGE (FT)MMM
27CIBW1COLUMBIA-AT INTL BOUNDARY05-21-2018DISCHARGE (KAF)35772MM
28LAUW1KETTLE-AT LAURIER05-21-2018DISCHARGE (KAF)1037106697
29GCDW1COLUMBIA-GRAND COULEE DAM05-21-2018INFLOW (KAF)383773860499
30CHJW1COLUMBIA-CHIEF JOSEPH DAM05-21-2018INFLOW (KAF)3437229067118
31TONW1OKANOGAN-NEAR TONASKET05-21-2018DISCHARGE (KAF)15641138137
32PATW1METHOW-NEAR PATEROS05-21-2018DISCHARGE (KAF)753637118
33WELW1COLUMBIA-WELLS DAM05-21-2018INFLOW (KAF)3666831161118
34CHDW1CHELAN-LAKE CHELAN DAM05-21-2018INFLOW (KAF)75881094
35RRHW1COLUMBIA-ROCKY REACH DAM05-21-2018INFLOW (KAF)3801731807120
36ARDW1ENTIAT-NEAR ARDENVOIR05-21-2018DISCHARGE (KAF)14515792
37PESW1WENATCHEE-AT PESHASTIN05-21-2018DISCHARGE (KAF)868105183
38WANW1COLUMBIA-WANAPUM DAM05-21-2018INFLOW (KAF)3929038405102
39PRWW1COLUMBIA-PRIEST RAPIDS DAM05-21-2018INFLOW (KAF)3931439242100
40KEDW1YAKIMA-KEECHELUS LAKE05-21-2018INFLOW (KAF)476375
41KADW1KACHESS-KACHESS DAM05-21-2018INFLOW (KAF)425675
42EASW1YAKIMA-AT EASTON05-21-2018DISCHARGE (KAF)648576
43CLUW1CLE ELUM-CLE ELUM LAKE05-21-2018INFLOW (KAF)19225376
44TNAW1TEANAWAY-BELOW FORKS05-21-2018DISCHARGE (KAF)324275
45UMTW1YAKIMA-AT UMTANUM05-21-2018DISCHARGE (KAF)77178998
46BUDW1BUMPING-BUMPING LAKE DAM05-21-2018INFLOW (KAF)598073
47CLFW1NACHES-NEAR CLIFFDEL05-21-2018DISCHARGE (KAF)18623978
48RILW1TIETON-RIMROCK LAKE NEAR RIMROCK05-21-2018INFLOW (KAF)14015094
49NACW1NACHES-NEAR NACHES05-21-2018DISCHARGE (KAF)25735373
50PARW1YAKIMA-NEAR PARKER05-21-2018DISCHARGE (KAF)20025778
51KIOW1YAKIMA-AT KIONA05-21-2018DISCHARGE (KAF)52059288
52IPDI1HENRYS FORK-ISLAND PARK DAM05-21-2018INFLOW (KAF)18218698
53CHEI1FALL RIVER-NEAR CHESTER05-21-2018DISCHARGE (KAF)22022399
54ANTI1HENRYS FORK-AT ST. ANTHONY05-21-2018DISCHARGE (KAF)41147387
55TEAI1TETON-NEAR ST. ANTHONY05-21-2018DISCHARGE (KAF)340314108
56REXI1HENRYS FORK-AT REXBURG05-21-2018DISCHARGE (KAF)50855791
57JLKW4SNAKE-JACKSON LAKE AT DAM05-21-2018INFLOW (KAF)62066693
58JKSW4SNAKE-NEAR JACKSON05-21-2018DISCHARGE (KAF)21311638130
59ALPW4SNAKE-NEAR ALPINE05-21-2018DISCHARGE (KAF)24742024122
60PLDI1SF SNAKE-PALISADES DAM05-21-2018INFLOW (KAF)31312757114
61HEII1SNAKE-NEAR HEISE05-21-2018DISCHARGE (KAF)32372921111
62RIDI1WILLOW CREEK-RIRIE DAM05-21-2018INFLOW (KAF)1615102
63SIFI1SNAKE-AB EAGLE ROCK NR IDAHO FALLS05-21-2018DISCHARGE (KAF)24012152112
64SHYI1SNAKE-NEAR SHELLEY05-21-2018DISCHARGE (KAF)21661829118
65SNAI1SNAKE-AT BLACKFOOT05-21-2018DISCHARGE (KAF)15761299121
66BFTI1SNAKE-NEAR BLACKFOOT05-21-2018DISCHARGE (KAF)15561186131
67PIHI1PORTNEUF-AT POCATELLO05-21-2018DISCHARGE (KAF)3735107
68AFRI1SNAKE-AMERICAN FALLS RESERVOIR05-21-2018INFLOW (KAF)21071802117
69MILI1SNAKE-AT MILNER05-21-2018DISCHARGE (KAF)424118360
70HOTI1BRUNEAU-NEAR HOT SPRINGS05-21-2018DISCHARGE (KAF)5310053
71SWAI1SNAKE-BELOW SWAN FALLS05-21-2018DISCHARGE (KAF)20282003101
72HWRI1BIG LOST-AT HOWELL RANCH NEAR CHILLY05-21-2018DISCHARGE (KAF)11114377
73MACI1BIG LOST-MACKAY RESERVOIR NEAR MACKAY05-21-2018INFLOW (KAF)10214272
74HALI1BIG WOOD-AT HAILEY05-21-2018DISCHARGE (KAF)16418390
75MAGI1BIG WOOD-MAGIC DAM05-21-2018INFLOW (KAF)10613181
76LWRI1LITTLE WOOD-LITTLE WOOD DAM05-21-2018INFLOW (KAF)284563
77OWYO3OWYHEE-OWYHEE DAM05-21-2018INFLOW (KAF)509851
78ARAI1SF BOISE-ANDERSON RANCH DAM05-21-2018INFLOW (KAF)17830658
79LUCI1BOISE-LUCKY PEAK DAM05-21-2018INFLOW (KAF)1111MM
80BIGI1BOISE-AT GLENWOOD BRIDGE05-21-2018DISCHARGE (KAF)516330156
81PARI1BOISE-NEAR PARMA05-21-2018DISCHARGE (KAF)493296167
82WRMO3MALHEUR-WARM SPRINGS DAM05-21-2018INFLOW (KAF)2630
83BERO3MALHEUR-AGENCY VALLEY DAM05-21-2018INFLOW (KAF)141597
84BULO3BULLY CREEK-BULLY CREEK DAM05-21-2018INFLOW (KAF)000
85VALO3MALHEUR-NEAR VALE05-21-2018DISCHARGE (KAF)113234
86CSDI1NF PAYETTE-CASCADE DAM05-21-2018INFLOW (KAF)18230859
87DEDI1DEADWOOD-NEAR LOWMAN05-21-2018INFLOW (KAF)599661
88EMMI1PAYETTE-NEAR EMMETT05-21-2018DISCHARGE (KAF)67386678
89WSRI1WEISER-NEAR WEISER05-21-2018DISCHARGE (KAF)9516358
90WEII1SNAKE-AT WEISER05-21-2018DISCHARGE (KAF)35213533100
91BRNI1SNAKE-BROWNLEE DAM05-21-2018INFLOW (KAF)3709374699
92WHBI1SALMON-AT WHITEBIRD05-21-2018DISCHARGE (KAF)4367454496
93TRYO3GRANDE RONDE-TROY05-21-2018DISCHARGE (KAF)44666867
94ANAW1SNAKE-NEAR ANATONE05-21-2018DISCHARGE (KAF)8615942391
95ORFI1CLEARWATER-AT OROFINO05-21-2018DISCHARGE (KAF)31102780112
96DWRI1NF CLEARWATER-DWORSHAK DAM05-21-2018INFLOW (KAF)15021463103
97SPDI1CLEARWATER-AT SPALDING05-21-2018DISCHARGE (KAF)52104122126
98LGDW1SNAKE-LOWER GRANITE DAM05-21-2018INFLOW (KAF)1383413646101
99LGSW1SNAKE-LITTLE GOOSE DAM05-21-2018INFLOW (KAF)1381913651101
100LMNW1SNAKE-LOWER MONUMENTAL DAM05-21-2018INFLOW (KAF)1385313685101
101IHDW1SNAKE-ICE HARBOR DAM05-21-2018INFLOW (KAF)1385313642102
102TCHW1WALLA WALLA-NEAR TOUCHET05-21-2018DISCHARGE (KAF)3425138
103MCDW1COLUMBIA-MCNARY DAM05-21-2018INFLOW (KAF)5391154090100
104GIBO3UMATILLA-NEAR GIBBON05-21-2018DISCHARGE (KAF)192478
105PDTO3UMATILLA-AT PENDLETON05-21-2018DISCHARGE (KAF)243470
106MYKO3MCKAY CREEK-NEAR PILOT ROCK05-21-2018DISCHARGE (KAF)1254
107UMAO3UMATILLA-NEAR UMATILLA05-21-2018DISCHARGE (KAF)136228
108MONO3NF JOHN DAY-AT MONUMENT05-21-2018DISCHARGE (KAF)8520142
109SERO3JOHN DAY-AT SERVICE CK05-21-2018DISCHARGE (KAF)9927935
110JDAO3COLUMBIA-JOHN DAY DAM05-21-2018INFLOW (KAF)547795513399
111MODO3DESCHUTES-AT MOODY NR BIGGS05-21-2018DISCHARGE (KAF)1061114693
112TDAO3COLUMBIA-THE DALLES DAM05-21-2018INFLOW (KAF)5507249474111
113PITW1KLICKITAT-NEAR PITT05-21-2018DISCHARGE (KAF)25531182
114HODO3HOOD-NEAR TUCKER BRIDGE05-21-2018DISCHARGE (KAF)10713082
115UNDW1WHITE SALMON-NEAR UNDERWOOD05-21-2018DISCHARGE (KAF)20222490
116BONO3COLUMBIA-BONNEVILLE DAM05-21-2018INFLOW (KAF)5550350613110